AirNav   Phillips 66 Aviation Fuel
 
 1053 users online  

5FL0 Dusty Airpatch Airport
Dade City, Florida, USA

GOING TO DADE CITY?


FAA INFORMATION EFFECTIVE 12 OCTOBER 2017

Location

FAA Identifier: 5FL0
Lat/Long: 28-24-47.0000N / 082-13-24.3000W
28-24.783333N / 082-13.405000W
28.4130556 / -82.2234167
(estimated)
Elevation: 120 ft. / 37 m (estimated)
Variation: 03W (1995)
From city: 3 miles NW of DADE CITY, FL
Time zone: UTC -4 (UTC -5 during Standard Time)
Zip code: 33523

Airport Operations

Airport use: Private use. Permission required prior to landing
Activation date: 11/1999
Control tower: no
ARTCC: MIAMI CENTER
FSS: MIAMI FLIGHT SERVICE STATION
Attendance: UNATNDD
Wind indicator: yes
Segmented circle: no

Airport Communications

WX ASOS at ZPH (12 nm S): 118.975 (813-780-0031)
WX ASOS at BKV (13 nm W): 134.725 (352-799-5881)

Nearby radio navigation aids

VOR radial/distance  VOR name  Freq  Var
LALr336/27.9LAKELAND VORTAC116.0001E
PIEr044/38.9ST PETERSBURG VORTAC116.4005W

 
NDB name  Hdg/Dist  Freq  Var  ID
LEESBURG226/32.733504WLEE .-.. . .

Airport Services

Runway Information

Runway 18/36

Dimensions: 1534 x 100 ft. / 468 x 30 m
Surface: turf, in good condition
Runway edge markings: RY 18/36 MKD WITH TIRES.
RUNWAY 18  RUNWAY 36
Traffic pattern: rightleft
Obstructions: none30 ft. trees, 10 ft. from runway

Airport Ownership and Management from official FAA records

Ownership: Privately-owned
Owner: HERBERT W. RHODE
35731 BLANTON ROAD
DADE CITY, FL 33523-6352
Phone 352-521-3919
Manager: HERBERT W. RHODE
35731 BLANTON ROAD
DADE CITY, FL 33523-6352
Phone 352-521-3919

Airport Operational Statistics

Aircraft based on the field: 1
Single engine airplanes: 1
    

Additional Remarks

220 FT TO 423 FT RADIO TOWERS ALL QUADRANTS AT A DISTANCE OF 1 TO 3 NM FROM ARPT.

Instrument Procedures

There are no published instrument procedures at 5FL0.

Some nearby airports with instrument procedures:

KZPH - Zephyrhills Municipal Airport (12 nm S)
KBKV - Brooksville-Tampa Bay Regional Airport (13 nm W)
KINF - Inverness Airport (24 nm N)
KVDF - Tampa Executive Airport (25 nm S)
KPCM - Plant City Airport (25 nm S)
 
Loc | Ops | Rwys | IFR | FBO | Links
Com | Nav | Svcs | Stats | Notes


 
Area around 5FL0 (Dusty Airpatch Airport)
 
Road maps at: MapQuest Bing Google
 
Aerial photo
No photo
 
Sectional chart

 
Airport distance calculator
Flying to Dusty Airpatch Airport? Find the distance to fly.

From to 5FL0

Sunrise and sunset
Times for 22-Oct-2017
 Local
(UTC-4)
 Zulu
(UTC)
Morning civil twilight07:1111:11
Sunrise07:3511:35
Sunset18:5222:52
Evening civil twilight19:1623:16

Current date and time
Zulu (UTC)  22-Oct-2017 15:57:02
Local (UTC-4)  22-Oct-2017 11:57:02
 
METAR
KZPH 
12nm S 
221535Z AUTO 10008G14KT 10SM SCT020 SCT025 BKN034 29/24 A3015 RMK AO2 T02850235
KBKV 
12nm W 
221453Z 12010G16KT 10SM CLR 28/23 A3015 RMK AO2 SLP206 T02830228 50008
TAF
KLAL 
29nm S 
221134Z 2212/2312 09006KT P6SM SCT025 BKN200 FM221500 12011KT P6SM SCT025 BKN060 FM221800 13011G16KT P6SM VCSH SCT020 BKN110 FM230000 11006KT P6SM FEW035 BKN150
KTPA 
31nm SW 
221134Z 2212/2312 09008KT P6SM SCT025 BKN200 FM221700 13010KT P6SM VCSH SCT025 BKN150 FM230000 12006KT P6SM SCT030 BKN150
KLEE 
32nm NE 
221127Z 2212/2312 06007KT P6SM FEW025 BKN250 FM221700 12008KT P6SM VCSH SCT025 BKN040 BKN250 TEMPO 2217/2220 3SM TSRA BKN030CB FM222300 10006KT P6SM SCT025 SCT040 BKN250
NOTAMs
Click for the latest NOTAMs
NOTAMs are issued by the DoD/FAA and will open in a separate window not controlled by AirNav.

 

 
 

Would you like to see your business listed on this page?

 If your business provides an interesting product or service to pilots, flight crews, aircraft, or users of the Dusty Airpatch Airport, you should consider listing it here.  To start the listing process, click on the button below
 
Add a business
 

Other Pages about Dusty Airpatch Airport

Update a link
 
Copyright © AirNav, LLC. All rights reserved. Privacy Policy  Contact